N4CRH-13 Weather Reports


Display with metric or nautical units.
time (UTC)temp
F
wind
direction
speed
MPH
gust
MPH
rain 1hr
in
rain 24hr
in
rain mn
in
humidity
%
barometer
mb
20260505094908 41 256 7.0 10.0 0.00 0.05 0.05 96 1289.1
20260505094406 41 313 8.0 10.0 0.00 0.05 0.05 96 1289.0
20260505093901 41 297 0.0 1.0 0.00 0.05 0.05 95 1288.6
20260505093358 41 246 0.0 0.0 0.00 0.05 0.05 94 1288.6
20260505092856 41 259 0.0 1.0 0.00 0.05 0.05 94 1288.5
20260505092354 42 302 0.0 1.0 0.00 0.05 0.05 94 1288.5
20260505091850 42 342 0.0 1.0 0.00 0.05 0.05 93 1288.4
20260505091349 42 309 0.0 0.0 0.00 0.05 0.05 92 1288.6
20260505090846 42 300 0.0 0.0 0.00 0.05 0.05 91 1288.6
20260505090344 43 308 0.0 5.0 0.00 0.05 0.05 89 1288.3
20260505085841 43 82 4.0 5.0 0.00 0.05 0.05 89 1288.4
20260505085339 43 152 2.0 3.0 0.00 0.05 0.05 90 1288.5
20260505084837 43 306 0.0 2.0 0.00 0.05 0.05 89 1288.5
20260505084335 42 287 1.0 2.0 0.00 0.05 0.05 90 1288.5
20260505083832 42 223 3.0 5.0 0.00 0.05 0.05 92 1288.5
20260505083329 41 80 1.0 2.0 0.00 0.05 0.05 95 1288.7
20260505082826 41 295 2.0 2.0 0.00 0.05 0.05 97 1288.7
20260505082322 41 247 1.0 2.0 0.00 0.05 0.05 97 1289.1
20260505081819 41 122 1.0 2.0 0.00 0.05 0.05 97 1289.0
20260505081315 41 316 0.0 1.0 0.00 0.05 0.05 98 1289.1
20260505080812 41 262 0.0 1.0 0.00 0.05 0.05 98 1289.5
20260505080308 41 257 0.0 0.0 0.00 0.05 0.05 98 1289.6
20260505075804 42 285 0.0 0.0 0.00 0.05 0.05 98 1289.6
20260505075303 42 252 1.0 2.0 0.00 0.05 0.05 98 1289.8
20260505074758 42 294 0.0 0.0 0.00 0.05 0.05 98 1290.1
20260505074255 42 275 0.0 1.0 0.00 0.05 0.05 98 1290.3
20260505073753 42 168 1.0 2.0 0.00 0.05 0.05 98 1290.1
20260505073251 42 190 1.0 2.0 0.07 0.05 0.05 98 1290.2
20260505072747 42 282 0.0 0.0 0.07 0.05 0.05 98 1290.7
20260505072243 42 285 0.0 1.0 0.00 0.04 0.04 98 1290.6
20260505071739 42 286 0.0 0.0 0.05 0.04 0.04 98 1290.4
20260505071236 42 267 0.0 1.0 0.05 0.04 0.04 98 1290.4
20260505070734 42 275 0.0 0.0 0.00 0.03 0.03 98 1290.7
20260505070230 42 275 0.0 0.0 0.07 0.03 0.03 98 1290.4
20260505065725 42 274 0.0 1.0 0.07 0.03 0.03 97 1290.7
20260505065223 42 349 0.0 0.0 0.00 0.02 0.02 97 1290.8
20260505064719 42 306 0.0 0.0 0.00 0.02 0.02 97 1290.8
20260505064217 42 309 0.0 1.0 0.05 0.02 0.02 97 1290.8
20260505063715 42 295 0.0 0.0 0.05 0.02 0.02 97 1291.1
20260505063210 42 293 0.0 0.0 0.00 0.01 0.01 97 1290.4
20260505062708 42 296 0.0 0.0 0.00 0.01 0.01 97 1290.6
20260505062206 42 287 0.0 0.0 0.07 0.01 0.01 97 1290.6
20260505061702 42 286 0.0 1.0 0.07 0.01 0.01 97 1290.7
20260505061200 42 300 0.0 1.0 0.00 0.00 0.00 97 1290.7
20260505060657 42 301 0.0 0.0 0.00 0.00 0.00 97 1290.7
20260505060153 42 299 0.0 0.0 0.00 0.00 0.00 97 1290.4
20260505055649 42 298 0.0 0.0 0.00 0.15 0.15 97 1290.6
20260505055145 42 298 0.0 0.0 0.00 0.15 0.15 97 1290.4
20260505054643 43 298 0.0 0.0 0.00 0.15 0.15 97 1290.8
20260505054141 42 279 1.0 2.0 0.00 0.15 0.15 97 1290.7
20260505053638 42 261 2.0 3.0 0.00 0.15 0.15 97 1290.8
20260505053134 43 300 2.0 5.0 0.00 0.15 0.15 96 1290.8
20260505052632 43 296 5.0 7.0 0.00 0.15 0.15 96 1290.4
20260505052129 43 292 4.0 6.0 0.00 0.15 0.15 96 1290.9
20260505051626 42 284 2.0 6.0 0.00 0.15 0.15 96 1290.6
20260505051124 42 272 3.0 3.0 0.00 0.15 0.15 96 1290.8
20260505050621 42 277 3.0 5.0 0.00 0.15 0.15 96 1290.7
20260505050120 42 261 2.0 5.0 0.00 0.15 0.15 96 1290.8
20260505041549 42 293 1.0 1.0 0.00 0.15 0.15 95 1290.7
20260505041047 42 309 0.0 1.0 0.00 0.15 0.15 94 1290.4
20260505040544 42 298 2.0 2.0 0.00 0.15 0.15 94 1290.8
20260505040041 42 292 1.0 2.0 0.00 0.15 0.15 94 1290.7
20260505035537 42 289 1.0 1.0 0.00 0.15 0.15 94 1290.2
20260505035034 42 337 0.0 1.0 0.00 0.15 0.15 93 1290.3
20260505034530 43 310 0.0 1.0 0.00 0.15 0.15 93 1290.1
20260505034027 43 288 0.0 1.0 0.12 0.15 0.15 93 1290.2
20260505033524 43 244 1.0 1.0 0.12 0.14 0.14 93 1290.0
20260505033022 44 121 1.0 2.0 0.12 0.13 0.13 91 1290.4
20260505032520 44 338 0.0 1.0 0.19 0.12 0.12 89 1290.4
20260505032016 44 314 1.0 1.0 0.19 0.11 0.11 89 1290.7
20260505031513 44 344 0.0 2.0 0.07 0.09 0.09 89 1290.6
20260505031010 44 342 1.0 1.0 0.05 0.08 0.08 90 1290.6
20260505030506 44 327 1.0 1.0 0.07 0.07 0.07 89 1290.1
20260505030001 45 293 0.0 1.0 0.07 0.07 0.07 87 1290.0
20260505025458 45 267 0.0 1.0 0.00 0.06 0.06 85 1290.1
20260505024958 45 344 1.0 2.0 0.05 0.06 0.06 83 1290.2
20260505024454 44 332 1.0 3.0 0.00 0.05 0.05 87 1290.2
20260505023951 45 296 0.0 1.0 0.07 0.05 0.05 87 1290.1
20260505023448 44 316 1.0 2.0 0.07 0.05 0.05 87 1289.7
20260505022946 45 200 2.0 2.0 0.00 0.04 0.04 88 1289.8
20260505022443 45 320 0.0 1.0 0.00 0.04 0.04 86 1289.8
20260505021940 44 308 0.0 1.0 0.00 0.04 0.04 91 1289.8
20260505021436 44 303 0.0 0.0 0.05 0.04 0.04 92 1290.3
20260505020932 44 282 0.0 1.0 0.05 0.04 0.04 92 1289.7
20260505020428 44 288 1.0 1.0 0.00 0.03 0.03 92 1290.1
20260505015925 44 276 2.0 2.0 0.00 0.03 0.03 91 1290.0
20260505015422 44 296 0.0 1.0 0.00 0.03 0.03 91 1289.8
20260505014919 45 239 0.0 1.0 0.00 0.03 0.03 91 1289.8
20260505014416 45 260 0.0 0.0 0.00 0.03 0.03 89 1289.4
20260505013913 45 299 0.0 0.0 0.00 0.03 0.03 87 1289.4
20260505013410 45 292 0.0 0.0 0.00 0.03 0.03 86 1289.2
20260505012908 46 291 0.0 2.0 0.07 0.03 0.03 81 1289.1
20260505012406 46 278 3.0 6.0 0.07 0.03 0.03 79 1289.8
20260505011901 46 260 3.0 11.0 0.05 0.02 0.02 79 1289.8
20260505011358 48 268 4.0 6.0 0.12 0.02 0.02 71 1289.8
20260505010855 48 258 5.0 8.0 0.07 0.01 0.01 71 1289.6
20260505010350 49 257 9.0 14.0 0.00 0.00 0.00 68 1289.7
20260505005847 50 242 10.0 16.0 0.00 0.00 0.00 61 1289.5
20260505005344 51 273 7.0 14.0 0.00 0.00 0.00 56 1289.2
20260505004842 52 298 9.0 14.0 0.00 0.00 0.00 51 1289.2
20260505004337 52 275 7.0 8.0 0.00 0.00 0.00 51 1289.1
20260505003835 52 263 6.0 10.0 0.00 0.00 0.00 50 1289.1
20260505003332 52 290 5.0 7.0 0.00 0.00 0.00 49 1289.0
20260505002828 52 291 3.0 3.0 0.00 0.00 0.00 50 1288.9
20260505002325 53 187 1.0 5.0 0.00 0.00 0.00 48 1289.1
20260505001823 53 340 3.0 6.0 0.00 0.00 0.00 48 1289.2
20260505001320 53 9 3.0 6.0 0.00 0.00 0.00 47 1289.1
20260505000817 54 301 2.0 5.0 0.00 0.00 0.00 46 1288.7
20260505000315 54 219 3.0 5.0 0.00 0.00 0.00 46 1288.7
20260504235811 54 327 4.0 9.0 0.00 0.00 0.00 45 1288.9
20260504235308 55 299 9.0 16.0 0.00 0.00 0.00 45 1288.9
20260504234805 55 299 11.0 16.0 0.00 0.00 0.00 43 1288.3
20260504234303 56 330 10.0 13.0 0.00 0.00 0.00 41 1288.1
20260504233759 56 291 9.0 15.0 0.00 0.00 0.00 41 1288.3
20260504233255 57 311 13.0 16.0 0.00 0.00 0.00 40 1288.1
20260504232752 57 303 9.0 16.0 0.00 0.00 0.00 40 1288.1
20260504232249 57 303 9.0 15.0 0.00 0.00 0.00 39 1288.0
20260504231746 58 287 10.0 11.0 0.00 0.00 0.00 38 1287.9
20260504231242 60 299 5.0 9.0 0.00 0.00 0.00 34 1287.8
20260504230738 60 319 6.0 7.0 0.00 0.00 0.00 32 1287.6
20260504230237 60 294 7.0 8.0 0.00 0.00 0.00 32 1287.2
20260504225735 60 264 4.0 7.0 0.00 0.00 0.00 34 1287.3
20260504225231 60 306 6.0 8.0 0.00 0.00 0.00 35 1287.2
20260504224728 61 259 3.0 3.0 0.00 0.00 0.00 33 1287.0
20260504224226 61 292 1.0 5.0 0.00 0.00 0.00 29 1287.0
20260504223722 61 261 3.0 5.0 0.00 0.00 0.00 31 1287.0
20260504223217 61 296 6.0 7.0 0.00 0.00 0.00 31 1287.0
20260504222715 61 273 2.0 3.0 0.00 0.00 0.00 34 1287.0
20260504222211 61 258 8.0 8.0 0.00 0.00 0.00 30 1287.3
20260504221709 61 296 7.0 10.0 0.00 0.00 0.00 30 1287.3
20260504221206 62 249 7.0 9.0 0.00 0.00 0.00 31 1286.9
20260504220702 62 296 9.0 11.0 0.00 0.00 0.00 33 1287.2
20260504220200 61 258 8.0 10.0 0.00 0.00 0.00 33 1286.9
20260504215656 61 299 6.0 11.0 0.00 0.00 0.00 34 1287.2
20260504215154 62 277 9.0 11.0 0.00 0.00 0.00 33 1287.3
20260504214649 63 298 13.0 15.0 0.00 0.00 0.00 33 1287.2
20260504214146 62 281 12.0 18.0 0.00 0.00 0.00 34 1287.2
20260504213642 61 278 11.0 16.0 0.00 0.00 0.00 34 1287.2
20260504213139 61 270 13.0 16.0 0.00 0.00 0.00 33 1287.3
20260504212635 61 244 13.0 16.0 0.00 0.00 0.00 34 1287.2
20260504212132 62 285 15.0 20.0 0.00 0.00 0.00 33 1287.3
20260504211630 63 301 15.0 20.0 0.00 0.00 0.00 33 1287.3
20260504211126 65 291 11.0 18.0 0.00 0.00 0.00 28 1287.2
20260504210624 66 306 9.0 14.0 0.00 0.00 0.00 28 1287.2
20260504210120 64 293 10.0 14.0 0.00 0.00 0.00 28 1287.3
20260504205618 62 291 9.0 13.0 0.00 0.00 0.00 30 1287.5
20260504205115 61 303 8.0 15.0 0.00 0.00 0.00 30 1287.4
20260504204614 62 307 5.0 14.0 0.00 0.00 0.00 33 1287.5
20260504204112 62 299 13.0 17.0 0.00 0.00 0.00 31 1287.4
20260504203610 62 302 10.0 13.0 0.00 0.00 0.00 30 1287.8
20260504203103 62 309 7.0 11.0 0.00 0.00 0.00 35 1287.6
20260504202557 61 298 9.0 15.0 0.00 0.00 0.00 32 1287.6
20260504202055 61 295 10.0 13.0 0.00 0.00 0.00 34 1287.5
20260504201551 61 322 14.0 17.0 0.00 0.00 0.00 33 1287.6
20260504201049 61 275 12.0 14.0 0.00 0.00 0.00 32 1287.8
20260504200545 61 257 11.0 18.0 0.00 0.00 0.00 33 1287.8
20260504200042 61 289 14.0 16.0 0.00 0.00 0.00 32 1287.8
20260504195538 62 287 9.0 16.0 0.00 0.00 0.00 31 1287.8
20260504195035 62 301 11.0 18.0 0.00 0.00 0.00 31 1287.8
20260504194532 63 291 14.0 17.0 0.00 0.00 0.00 31 1287.6
20260504194027 62 285 9.0 13.0 0.00 0.00 0.00 31 1287.8
20260504193524 62 313 9.0 14.0 0.00 0.00 0.00 32 1287.5
20260504193023 62 284 19.0 23.0 0.00 0.00 0.00 30 1287.9
20260504192521 64 263 5.0 8.0 0.00 0.00 0.00 22 1287.3
20260504192019 65 259 6.0 10.0 0.00 0.00 0.00 21 1287.2
20260504191516 66 298 7.0 11.0 0.00 0.00 0.00 24 1287.3
20260504191012 66 299 7.0 11.0 0.00 0.00 0.00 22 1287.5
20260504190508 66 303 6.0 10.0 0.00 0.00 0.00 30 1287.4
20260504190004 63 302 7.0 8.0 0.00 0.00 0.00 27 1287.3
20260504185502 63 301 7.0 14.0 0.00 0.00 0.00 27 1287.4
20260504184958 64 274 4.0 5.0 0.00 0.00 0.00 26 1287.5
20260504184453 64 250 5.0 7.0 0.00 0.00 0.00 28 1287.4
20260504183949 65 298 6.0 7.0 0.00 0.00 0.00 25 1287.6
20260504183447 65 301 8.0 8.0 0.00 0.00 0.00 23 1287.8
20260504182944 65 267 2.0 8.0 0.00 0.00 0.00 21 1287.6
20260504182441 66 295 2.0 7.0 0.00 0.00 0.00 22 1287.4
20260504181939 66 297 9.0 15.0 0.00 0.00 0.00 24 1287.9
20260504181435 65 296 3.0 7.0 0.00 0.00 0.00 23 1288.0
20260504180934 65 333 4.0 6.0 0.00 0.00 0.00 23 1287.9
20260504180433 65 277 2.0 5.0 0.00 0.00 0.00 23 1288.0
20260504175930 64 111 3.0 8.0 0.00 0.00 0.00 25 1288.0
20260504175427 64 291 7.0 15.0 0.00 0.00 0.00 24 1288.1
20260504174925 65 311 6.0 7.0 0.00 0.00 0.00 25 1288.1
20260504174422 64 282 4.0 8.0 0.00 0.00 0.00 25 1288.3
20260504173919 65 258 6.0 7.0 0.00 0.00 0.00 29 1288.6
20260504173416 63 298 3.0 17.0 0.00 0.00 0.00 25 1288.7
20260504172914 63 306 9.0 14.0 0.00 0.00 0.00 27 1289.0
20260504172409 63 272 7.0 9.0 0.00 0.00 0.00 28 1288.9
20260504171905 63 296 4.0 10.0 0.00 0.00 0.00 27 1289.1
20260504171403 63 298 6.0 10.0 0.00 0.00 0.00 28 1289.0
20260504170900 63 124 2.0 9.0 0.00 0.00 0.00 26 1288.9
20260504170356 62 291 7.0 9.0 0.00 0.00 0.00 28 1289.1
20260504160315 62 266 14.0 22.0 0.00 0.00 0.00 31 1289.5
20260504150740 59 303 8.0 16.0 0.00 0.00 0.00 29 1289.6
20260504150237 59 244 6.0 8.0 0.00 0.00 0.00 30 1289.8
20260504141206 58 287 2.0 9.0 0.00 0.00 0.00 32 1289.6
20260504140703 57 267 2.0 6.0 0.00 0.00 0.00 30 1289.6
20260504140158 57 289 3.0 7.0 0.00 0.00 0.00 32 1289.7
20260504130627 57 297 3.0 6.0 0.00 0.00 0.00 32 1289.5
20260504130124 56 164 3.0 13.0 0.00 0.00 0.00 31 1289.5
20260504110515 41 276 1.0 1.0 0.00 0.00 0.00 53 1289.5
20260504100436 48 115 2.0 5.0 0.00 0.00 0.00 39 1289.6